Two Harbors, MN

5:30 PM CST on February 05, 2016 (GMT -0600)
Helgeson

Weather History for KTWM - September, 2012

Change the Weather History Date:

Tuesday, September 11, 2012

  Actual Average (WUND) Record (WUND)
Temperature  
Mean Temperature 62 °F -  
Max Temperature 75 °F - - (-1)
Min Temperature 48 °F - - (-1)
Degree Days  
Heating Degree Days 4    
Growing Degree Days 12 (Base 50)    
Moisture  
Dew Point 52 °F    
Average Humidity 72    
Maximum Humidity 88    
Minimum Humidity 50    
Precipitation  
Precipitation 0.00 in - - ()
Sea Level Pressure  
Sea Level Pressure 29.75 in    
Wind  
Wind Speed 2 mph (South)    
Max Wind Speed 21 mph    
Max Gust Speed 28 mph    
Visibility 10 miles    
Events      
Averages and records for this station are not official NWS values.
T = Trace of Precipitation, MM = Missing Value Source: NWS Daily Summary

Daily Weather History Graph

Daily Weather History Graph

Search for Another Location

Airport or City:

Trip Planner

Search our weather history database for the weather conditions in past years. The results will help you decide how hot, cold, wet, or windy it might be!

Date:

Astronomy

Sep. 11, 2012 Rise Set
Actual Time 6:40 AM CDT 7:25 PM CDT
Civil Twilight 6:09 AM CDT 7:56 PM CDT
Nautical Twilight 5:32 AM CDT 8:33 PM CDT
Astronomical Twilight 4:53 AM CDT 9:11 PM CDT
Moon 1:42 AM CDT (9/11) 4:49 PM CDT (9/11)
Length of Visible Light 13h 47m
Length of Day
12h 45m
Waning Crescent, 21% of the Moon is Illuminated
Sep 11
Waning Crescent
Sep 15
New
Sep 22
First Quarter
Sep 29
Full
Oct 8
Last Quarter

Hourly Weather History & Observations

Time (CDT) Temp. Dew Point Humidity Pressure Visibility Wind Dir Wind Speed Gust Speed Precip Events Conditions
12:11 AM 50.0 °F 46.4 °F 87% 29.80 in 10.0 mi Calm Calm - N/A   Clear
12:31 AM 50.0 °F 44.6 °F 82% 29.79 in 10.0 mi Calm Calm - N/A   Clear
12:52 AM 50.0 °F 44.6 °F 82% 29.79 in 10.0 mi Calm Calm - N/A   Clear
1:11 AM 50.0 °F 44.6 °F 82% 29.79 in 10.0 mi Calm Calm - N/A   Clear
1:31 AM 51.8 °F 46.4 °F 82% 29.79 in 10.0 mi Calm Calm - N/A   Clear
1:52 AM 51.8 °F 46.4 °F 82% 29.78 in 10.0 mi Calm Calm - N/A   Clear
2:11 AM 51.8 °F 46.4 °F 82% 29.77 in 10.0 mi Calm Calm - N/A   Clear
2:31 AM 51.8 °F 46.4 °F 82% 29.77 in 10.0 mi Calm Calm - N/A   Clear
2:52 AM 51.8 °F 46.4 °F 82% 29.77 in 10.0 mi Calm Calm - N/A   Clear
3:11 AM 50.0 °F 44.6 °F 82% 29.77 in 10.0 mi Calm Calm - N/A   Clear
3:31 AM 50.0 °F 44.6 °F 82% 29.77 in 10.0 mi Calm Calm - N/A   Clear
3:52 AM 48.2 °F 44.6 °F 87% 29.77 in 10.0 mi Calm Calm - N/A   Clear
4:11 AM 48.2 °F 44.6 °F 87% 29.77 in 10.0 mi Calm Calm - N/A   Clear
4:31 AM 48.2 °F 44.6 °F 87% 29.77 in 10.0 mi Calm Calm - N/A   Clear
4:52 AM 48.2 °F 44.6 °F 87% 29.77 in 10.0 mi Calm Calm - N/A   Clear
5:11 AM 48.2 °F 44.6 °F 87% 29.78 in 10.0 mi Calm Calm - N/A   Clear
5:31 AM 48.2 °F 44.6 °F 87% 29.77 in 10.0 mi Calm Calm - N/A   Clear
5:52 AM 48.2 °F 42.8 °F 82% 29.77 in 10.0 mi Calm Calm - N/A   Clear
6:11 AM 48.2 °F 44.6 °F 87% 29.77 in 10.0 mi Calm Calm - N/A   Clear
6:31 AM 48.2 °F 44.6 °F 87% 29.78 in 10.0 mi West 4.6 mph - N/A   Clear
6:52 AM 50.0 °F 44.6 °F 82% 29.77 in 10.0 mi Calm Calm - N/A   Clear
7:11 AM 48.2 °F 44.6 °F 87% 29.78 in 10.0 mi Calm Calm - N/A   Clear
7:31 AM 51.8 °F 46.4 °F 82% 29.78 in 10.0 mi Calm Calm - N/A   Clear
7:52 AM 53.6 °F 48.2 °F 82% 29.78 in 10.0 mi Calm Calm - N/A   Clear
8:11 AM 57.2 °F 51.8 °F 82% 29.78 in 10.0 mi Calm Calm - N/A   Clear
8:31 AM 59.0 °F 53.6 °F 82% 29.78 in 10.0 mi Calm Calm - N/A   Clear
8:52 AM 62.6 °F 51.8 °F 68% 29.78 in 10.0 mi Calm Calm - N/A   Clear
9:11 AM 62.6 °F 53.6 °F 72% 29.77 in 10.0 mi SSW 4.6 mph - N/A   Clear
9:31 AM 64.4 °F 51.8 °F 64% 29.78 in 10.0 mi South 10.4 mph - N/A   Clear
9:52 AM 66.2 °F 53.6 °F 64% 29.78 in 10.0 mi SSW 9.2 mph - N/A   Clear
10:11 AM 68.0 °F 53.6 °F 60% 29.79 in 10.0 mi SW 10.4 mph - N/A   Clear
10:31 AM 66.2 °F 53.6 °F 64% 29.77 in 10.0 mi SW 11.5 mph - N/A   Clear
10:52 AM 68.0 °F 53.6 °F 60% 29.77 in 10.0 mi SSW 8.1 mph - N/A   Clear
11:11 AM 68.0 °F 53.6 °F 60% 29.76 in 10.0 mi South 6.9 mph - N/A   Clear
11:31 AM 66.2 °F 53.6 °F 64% 29.75 in 10.0 mi South 8.1 mph - N/A   Clear
11:52 AM 68.0 °F 53.6 °F 60% 29.75 in 10.0 mi South 6.9 mph - N/A   Clear
12:12 PM 69.8 °F 53.6 °F 56% 29.74 in 10.0 mi South 6.9 mph - N/A   Clear
12:31 PM 71.6 °F 53.6 °F 53% 29.74 in 10.0 mi South 10.4 mph - N/A   Clear
12:52 PM 73.4 °F 55.4 °F 53% 29.77 in 10.0 mi South 15.0 mph 26.5 mph N/A   Clear
1:12 PM 71.6 °F 55.4 °F 57% 29.78 in 10.0 mi SSW 20.7 mph 27.6 mph N/A   Clear
1:31 PM 71.6 °F 55.4 °F 57% 29.76 in 10.0 mi SSW 11.5 mph 16.1 mph N/A   Clear
1:52 PM 69.8 °F 53.6 °F 56% 29.72 in 10.0 mi South 12.7 mph 16.1 mph N/A   Clear
2:11 PM 69.8 °F 53.6 °F 56% 29.72 in 10.0 mi SSE 4.6 mph - N/A   Clear
2:32 PM 71.6 °F 55.4 °F 57% 29.74 in 10.0 mi South 10.4 mph - N/A   Clear
2:51 PM 73.4 °F 55.4 °F 53% 29.71 in 10.0 mi SSE 6.9 mph - N/A   Clear
3:11 PM 75.2 °F 55.4 °F 50% 29.71 in 10.0 mi South 10.4 mph 18.4 mph N/A   Clear
3:32 PM 75.2 °F 55.4 °F 50% 29.72 in 10.0 mi SSW 11.5 mph - N/A   Clear
3:51 PM 75.2 °F 55.4 °F 50% 29.70 in 10.0 mi SE 6.9 mph - N/A   Clear
4:11 PM 75.2 °F 55.4 °F 50% 29.68 in 10.0 mi SSE 5.8 mph - N/A   Clear
4:32 PM 75.2 °F 57.2 °F 53% 29.67 in 10.0 mi SE 5.8 mph - N/A   Clear
4:51 PM 75.2 °F 57.2 °F 53% 29.67 in 10.0 mi ESE 3.5 mph - N/A   Clear
5:11 PM 75.2 °F 57.2 °F 53% 29.67 in 10.0 mi Calm Calm - N/A   Clear
6:11 PM 73.4 °F 57.2 °F 57% 29.67 in 10.0 mi NNE 3.5 mph - N/A   Clear
6:32 PM 73.4 °F 57.2 °F 57% 29.67 in 10.0 mi Calm Calm - N/A   Clear
6:51 PM 71.6 °F 57.2 °F 60% 29.67 in 10.0 mi Calm Calm - N/A   Clear
7:11 PM 69.8 °F 57.2 °F 64% 29.68 in 10.0 mi Calm Calm - N/A   Clear
7:32 PM 68.0 °F 57.2 °F 68% 29.68 in 10.0 mi Calm Calm - N/A   Clear
7:51 PM 66.2 °F 57.2 °F 73% 29.69 in 10.0 mi Calm Calm - N/A   Clear
8:11 PM 64.4 °F 57.2 °F 77% 29.70 in 10.0 mi Calm Calm - N/A   Clear
8:32 PM 62.6 °F 57.2 °F 82% 29.71 in 10.0 mi NNW 3.5 mph - N/A   Clear
8:51 PM 62.6 °F 57.2 °F 82% 29.71 in 10.0 mi Calm Calm - N/A   Clear
9:11 PM 62.6 °F 57.2 °F 82% 29.71 in 10.0 mi Calm Calm - N/A   Clear
9:32 PM 59.0 °F 53.6 °F 82% 29.72 in 10.0 mi Calm Calm - N/A   Clear
9:51 PM 60.8 °F 55.4 °F 82% 29.73 in 10.0 mi WNW 3.5 mph - N/A   Clear
10:11 PM 59.0 °F 53.6 °F 82% 29.74 in 10.0 mi Calm Calm - N/A   Clear
10:32 PM 59.0 °F 53.6 °F 82% 29.74 in 10.0 mi Calm Calm - N/A   Clear
10:52 PM 59.0 °F 53.6 °F 82% 29.75 in 10.0 mi Calm Calm - N/A   Clear
11:11 PM 57.2 °F 53.6 °F 88% 29.76 in 10.0 mi Calm Calm - N/A   Clear
11:32 PM 57.2 °F 53.6 °F 88% 29.76 in 10.0 mi Calm Calm - N/A   Clear
11:52 PM 62.6 °F 55.4 °F 77% 29.77 in 10.0 mi WSW 5.8 mph - N/A   Clear